Location: Huesca
(42.1318°N, 0.4078°W)
Time: 05:39:12
(UTC+02:00)

Tiangong - Pass Details

Date: 16 June 2024
Orbit: 374 x 377 km, 41.5° (Epoch: 18 July)

Event Time Altitude Azimuth Distance (km) Brightness Sun altitude
Rises 22:45:18 0° 274° (W) 2,250 2.6 -10.2°
Reaches altitude 10° 22:47:45 10° 255° (WSW) 1,392 1.1 -10.5°
Maximum altitude 22:50:03 19° 209° (SSW) 988 -0.2 -10.8°
Enters shadow 22:51:38 14° 172° (S) 1,194 -0.1 -11.0°
